[[{"header":{"parameterUnit":"m.s-1","parameterCategory":1,"la1":30.2991,"la2":30.254,"lo1":-89.0895,"lo2":-89.0444,"dy":0.0017,"dx":0.0017,"nx":28,"ny":28,"refTime":"2025-06-06T09:00:00:Z","depth":0,"parameterNumber":2,"parameterNumberName":"U-component_of_WINDS"},"data":[0,0,0,0,0,0,0,0,0,0,0,0,0,0,0,0,0,0,0,0,0,0,0,0,0,0,0,0,0,0,0,0,0,0,0,0,0,0,0,0,0,0,0,0,0,0,0,0,0,0,0,0,0,0,0,0,0,0,2.493,2.4931,0,2.5002,2.5003,2.5004,2.5002,2.5001,2.5,2.4999,2.5073,2.5076,2.5079,0,0,0,0,0,0,0,0,0,0,0,0,0,2.4789,2.4792,2.493,2.4931,2.4932,2.5002,2.5003,2.5004,2.5002,2.5001,2.4999,2.4998,2.5072,2.5076,2.5079,0,0,0,0,0,0,0,0,0,0,0,0,0,2.4855,2.4793,2.493,2.4939,2.494,2.5002,2.5003,2.5004,2.5002,2.5,2.4999,2.4998,2.5071,2.5075,2.508,2.5137,0,0,2.5093,2.5095,0,0,0,0,0,0,0,0,2.4851,2.486,2.4937,2.4938,2.494,2.4991,2.4981,2.5049,2.5002,2.4979,2.4999,2.4997,2.5047,2.5053,2.507,2.514,2.5144,2.5093,2.5096,2.5098,2.5099,0,0,0,0,0,0,0,2.4847,2.4857,2.4958,2.4938,2.494,2.4939,2.4947,2.4994,2.502,2.4981,2.4981,2.4989,2.5048,2.5066,2.5072,2.5145,2.5093,2.5097,2.51,2.5102,2.5266,2.5267,0,0,0,0,0,0,2.484,2.4853,2.4956,2.4961,2.4891,2.4943,2.4952,2.4976,2.502,2.5025,2.499,2.4989,2.5059,2.5067,2.5075,2.5145,2.5098,2.5102,2.5105,2.5264,2.5266,2.5268,0,0,0,0,0,0,2.4837,2.4849,2.4953,2.4907,2.492,2.4947,2.4975,2.4979,2.4997,2.5027,2.5032,2.5004,2.5059,2.5069,2.5121,2.5147,2.5104,2.5108,2.5262,2.5265,2.5267,2.5285,0,0,0,0,0,0,2.4833,2.4848,2.487,2.4907,2.4923,2.4999,2.4977,2.4981,2.5004,2.5003,2.5042,2.5046,2.5058,2.5115,2.5126,2.5152,2.5111,2.526,2.5263,2.5266,2.5282,2.5288,2.5293,0,0,0,0,0,2.4828,2.4872,2.4871,2.4884,2.4951,2.5,2.5009,2.5021,2.5007,2.5029,2.5049,2.5045,2.5143,2.512,2.5133,2.5161,2.5258,2.5262,2.5266,2.528,2.5287,2.5293,0,0,0,0,0,0,2.4837,2.4877,2.4877,2.4934,2.4964,2.5,2.5028,2.5028,2.5063,2.506,2.5074,2.5083,2.5136,2.5154,2.5128,2.5219,2.5199,2.5205,2.5205,2.5212,2.5217,2.5211,2.5115,0,0,0,0,0,2.4846,2.4883,2.4916,2.4964,2.4978,2.5001,2.5023,2.503,2.5061,2.5074,2.5097,2.5128,2.5165,2.519,2.5226,2.5285,2.5293,2.5311,2.5316,2.532,2.5325,2.5358,2.5366,2.5281,2.5281,2.5281,0,0,2.4864,2.4891,2.4913,2.4966,2.499,2.5028,2.5011,2.5052,2.508,2.508,2.5131,2.515,2.5185,2.5241,2.5267,2.5258,2.5351,2.5325,2.5328,2.5331,2.5363,2.5371,2.5378,2.5283,2.5283,2.5282,0,0,2.4917,2.4941,2.4983,2.5008,2.5044,2.5058,2.5069,2.5105,2.5117,2.5169,2.5169,2.5203,2.5267,2.5292,2.5314,2.5376,2.5375,2.5388,2.5415,2.5447,2.5454,2.546,2.5482,2.549,2.5393,2.5393,2.5393,0,2.4935,2.4993,2.5005,2.5046,2.507,2.5071,2.5114,2.5137,2.5183,2.5199,2.5188,2.5269,2.5293,2.5355,2.537,2.5388,2.54,2.5383,2.5452,2.5458,2.5464,2.5485,2.5494,2.5395,2.5394,2.5394,2.5394,0,2.5013,2.5053,2.5083,2.5127,2.5154,2.5196,2.5215,2.5241,2.5246,2.5261,2.5314,2.5343,2.5385,2.54,2.5406,2.5464,2.5457,2.5449,2.5429,2.5473,2.5494,2.5502,2.5397,2.5396,2.5396,2.5395,0,0,2.5073,2.5125,2.5135,2.5156,2.5196,2.5227,2.5269,2.531,2.5332,2.5364,2.54,2.5454,2.5447,2.5471,2.5479,2.5507,2.5555,2.5496,2.5497,2.5506,2.5621,2.5627,2.5636,2.5555,2.5556,2.5558,2.5618,0,2.513,2.5205,2.5218,2.5283,2.532,2.5322,2.5359,2.5387,2.5403,2.5437,2.5455,2.5494,2.5481,2.5496,2.5524,2.5544,2.5579,2.5539,2.5588,2.559,2.5579,2.5647,2.5653,2.5709,2.5626,2.5628,2.5629,0,2.5207,2.5241,2.531,2.5345,2.5361,2.5394,2.5433,2.5465,2.5498,2.5507,2.5534,2.5539,2.5583,2.5562,2.5623,2.5596,2.5616,2.5629,2.5632,2.5637,2.5612,2.5653,2.5727,2.5735,2.5641,2.564,2.5639,0,2.5243,2.5306,2.5356,2.5373,2.5416,2.5439,2.5458,2.5489,2.5513,2.5547,2.5563,2.5602,2.5623,2.5653,2.5669,2.5651,2.5729,2.5708,2.5738,2.5738,2.5754,2.5752,2.5831,2.5768,2.5768,2.5768,2.5767,0,2.5305,2.5348,2.5373,2.5403,2.5451,2.5465,2.5512,2.553,2.5558,2.5592,2.5596,2.5628,2.5647,2.5682,2.5694,2.5743,2.5753,2.5762,2.5764,2.5761,2.576,2.5775,2.5771,2.577,2.5769,2.5769,2.5768,0,2.5354,2.5373,2.5427,2.5463,2.5473,2.5507,2.5538,2.5567,2.5583,2.5627,2.5638,2.5663,2.5704,2.5723,2.5774,2.5782,2.5837,2.5838,2.5826,2.5827,2.5856,2.5853,2.5947,2.596,2.5888,2.5888,2.5889,0,2.5393,2.5425,2.5465,2.5488,2.5507,2.5544,2.5569,2.5585,2.561,2.565,2.5675,2.5716,2.575,2.5816,2.5839,2.5878,2.5879,2.591,2.5885,2.5881,2.5879,2.5877,2.588,2.5914,2.5914,2.5915,2.5915,0,2.5458,2.5466,2.5501,2.554,2.5569,2.56,2.5631,2.5649,2.567,2.5698,2.574,2.5767,2.5819,2.586,2.59,2.592,2.5921,2.5923,2.5932,2.5929,2.5921,2.5925,2.5838,2.5921,2.592,2.592,2.592,2.5919,2.5503,2.5532,2.5564,2.5603,2.5628,2.5657,2.5686,2.5706,2.5741,2.5785,2.5792,2.5837,2.5869,2.5924,2.5945,2.5981,2.5974,2.5987,2.599,2.5993,2.5994,2.5915,2.5988,2.5988,2.5988,2.5988,2.5988,0,2.5569,2.559,2.5626,2.5668,2.5699,2.5698,2.5731,2.5757,2.5797,2.5827,2.586,2.5908,2.5948,2.5975,2.6015,2.6039,2.604,2.6049,2.6047,2.6051,2.5999,2.5987,2.6047,2.6047,2.6047,2.6047,2.6047,2.6047,2.5607,2.5655,2.5667,2.5728,2.5749,2.5793,2.5812,2.5839,2.5863,2.5917,2.595,2.5967,2.5995,2.6038,2.6075,2.6082,2.6096,2.6105,2.6111,2.6061,2.6055,2.6049,2.6038,2.6108,2.6108,2.6161,2.6162,2.6162]},{"header":{"parameterUnit":"m.s-1","parameterCategory":1,"la1":30.2991,"la2":30.254,"lo1":-89.0895,"lo2":-89.0444,"dy":0.0017,"dx":0.0017,"nx":28,"ny":28,"refTime":"2025-06-06T09:00:00:Z","depth":0,"parameterNumber":3,"parameterNumberName":"V-component_of_WINDS"},"data":[0,0,0,0,0,0,0,0,0,0,0,0,0,0,0,0,0,0,0,0,0,0,0,0,0,0,0,0,0,0,0,0,0,0,0,0,0,0,0,0,0,0,0,0,0,0,0,0,0,0,0,0,0,0,0,0,0,0,-0.3658,-0.3658,0,-0.3712,-0.3713,-0.3713,-0.3728,-0.3727,-0.3727,-0.3727,-0.3783,-0.3785,-0.3787,0,0,0,0,0,0,0,0,0,0,0,0,0,-0.3568,-0.3569,-0.3658,-0.3659,-0.3659,-0.3712,-0.3713,-0.3714,-0.3728,-0.3727,-0.3727,-0.3726,-0.3783,-0.3785,-0.3787,0,0,0,0,0,0,0,0,0,0,0,0,0,-0.3613,-0.357,-0.3658,-0.3673,-0.3674,-0.3712,-0.3713,-0.3714,-0.3728,-0.3727,-0.3727,-0.3726,-0.3782,-0.3784,-0.3787,-0.3814,0,0,-0.3795,-0.3797,0,0,0,0,0,0,0,0,-0.361,-0.3616,-0.367,-0.3672,-0.3674,-0.3713,-0.3702,-0.3747,-0.3728,-0.3708,-0.3727,-0.3726,-0.376,-0.3765,-0.3776,-0.3817,-0.3819,-0.3796,-0.3797,-0.3799,-0.3799,0,0,0,0,0,0,0,-0.3607,-0.3614,-0.3679,-0.3671,-0.3673,-0.3677,-0.3683,-0.371,-0.3736,-0.3709,-0.371,-0.3717,-0.3761,-0.3773,-0.3777,-0.382,-0.3796,-0.3798,-0.38,-0.3801,-0.3885,-0.3886,0,0,0,0,0,0,-0.3601,-0.3611,-0.3678,-0.3681,-0.364,-0.3679,-0.3686,-0.3701,-0.3736,-0.3741,-0.3717,-0.3717,-0.3769,-0.3774,-0.3779,-0.3813,-0.3799,-0.3801,-0.3803,-0.3885,-0.3885,-0.3886,0,0,0,0,0,0,-0.3599,-0.3607,-0.3675,-0.3646,-0.3655,-0.3681,-0.3698,-0.3702,-0.3714,-0.3742,-0.3746,-0.3725,-0.3769,-0.3776,-0.3805,-0.3815,-0.3802,-0.3805,-0.3884,-0.3885,-0.3886,-0.388,0,0,0,0,0,0,-0.3597,-0.3606,-0.3616,-0.3647,-0.3657,-0.37,-0.3699,-0.3703,-0.3719,-0.3719,-0.375,-0.3755,-0.3769,-0.3801,-0.3808,-0.3818,-0.3807,-0.3883,-0.3884,-0.3885,-0.3879,-0.388,-0.3881,0,0,0,0,0,-0.3593,-0.3613,-0.3617,-0.3625,-0.367,-0.37,-0.3706,-0.3722,-0.3719,-0.373,-0.3748,-0.3754,-0.3813,-0.3804,-0.3812,-0.3823,-0.3883,-0.3884,-0.3885,-0.3879,-0.388,-0.3881,0,0,0,0,0,0,-0.3583,-0.3617,-0.3622,-0.3652,-0.3673,-0.3703,-0.3716,-0.3723,-0.3746,-0.3746,-0.3765,-0.3772,-0.38,-0.3815,-0.3804,-0.3851,-0.3848,-0.3851,-0.384,-0.3842,-0.3843,-0.3838,-0.3809,0,0,0,0,0,-0.3585,-0.3606,-0.3635,-0.3658,-0.3669,-0.3691,-0.3705,-0.3715,-0.3738,-0.3747,-0.3767,-0.3789,-0.3813,-0.3828,-0.3852,-0.3882,-0.3888,-0.3893,-0.3895,-0.3895,-0.3897,-0.3914,-0.3917,-0.389,-0.389,-0.389,0,0,-0.3588,-0.3609,-0.3621,-0.3657,-0.3674,-0.3696,-0.3698,-0.3722,-0.3738,-0.3751,-0.378,-0.3795,-0.3822,-0.3851,-0.3865,-0.3864,-0.3906,-0.3897,-0.3897,-0.3899,-0.3916,-0.3918,-0.392,-0.3891,-0.3891,-0.3891,0,0,-0.3604,-0.3622,-0.3643,-0.3661,-0.3688,-0.3703,-0.3708,-0.3737,-0.3747,-0.3776,-0.3786,-0.3807,-0.3847,-0.3865,-0.388,-0.3903,-0.391,-0.3911,-0.3916,-0.3932,-0.3934,-0.3936,-0.3944,-0.3947,-0.3913,-0.3913,-0.3913,0,-0.3604,-0.3637,-0.3654,-0.3676,-0.3692,-0.3704,-0.3726,-0.3743,-0.3776,-0.3786,-0.3785,-0.3836,-0.3854,-0.3888,-0.3894,-0.3906,-0.3912,-0.3907,-0.3932,-0.3934,-0.3937,-0.3944,-0.3947,-0.3913,-0.3913,-0.3913,-0.3913,0,-0.3636,-0.3659,-0.3673,-0.3704,-0.3721,-0.3744,-0.3764,-0.3779,-0.3788,-0.3803,-0.3833,-0.3855,-0.3883,-0.3893,-0.3902,-0.3928,-0.3926,-0.3929,-0.3926,-0.3939,-0.3946,-0.3949,-0.3913,-0.3913,-0.3913,-0.3913,0,0,-0.3647,-0.3687,-0.3692,-0.3706,-0.3737,-0.3755,-0.3778,-0.3805,-0.3818,-0.384,-0.386,-0.3894,-0.3896,-0.3913,-0.3924,-0.3938,-0.3955,-0.3939,-0.394,-0.394,-0.3985,-0.3982,-0.3986,-0.396,-0.396,-0.3961,-0.3982,0,-0.3666,-0.3707,-0.3723,-0.3756,-0.3777,-0.379,-0.381,-0.3831,-0.3845,-0.3866,-0.3883,-0.3906,-0.3907,-0.3917,-0.3932,-0.395,-0.3964,-0.3949,-0.3978,-0.3979,-0.397,-0.399,-0.3987,-0.4007,-0.3986,-0.3986,-0.3986,0,-0.3694,-0.3717,-0.3752,-0.378,-0.379,-0.3807,-0.3833,-0.3853,-0.3877,-0.3887,-0.3905,-0.3916,-0.3941,-0.3937,-0.3971,-0.396,-0.3973,-0.3984,-0.3985,-0.3988,-0.3983,-0.3992,-0.4013,-0.4016,-0.3991,-0.3991,-0.3991,0,-0.3698,-0.3737,-0.3763,-0.3775,-0.3809,-0.3821,-0.3835,-0.3859,-0.3874,-0.3897,-0.3908,-0.3933,-0.3947,-0.3967,-0.3985,-0.398,-0.4017,-0.4015,-0.4026,-0.4026,-0.4033,-0.4032,-0.4055,-0.4042,-0.4042,-0.4042,-0.4042,0,-0.3717,-0.3738,-0.3765,-0.3781,-0.3805,-0.3823,-0.3847,-0.3862,-0.3883,-0.3903,-0.3916,-0.3934,-0.3956,-0.3977,-0.3991,-0.4017,-0.4023,-0.4032,-0.4035,-0.403,-0.4029,-0.4039,-0.4038,-0.4043,-0.4043,-0.4043,-0.4042,0,-0.3725,-0.3744,-0.3773,-0.3802,-0.381,-0.3827,-0.3852,-0.3868,-0.3883,-0.3908,-0.3915,-0.3939,-0.3964,-0.3984,-0.4017,-0.4026,-0.4054,-0.4058,-0.4045,-0.4047,-0.4057,-0.4055,-0.4086,-0.4091,-0.4076,-0.4076,-0.4076,0,-0.3736,-0.3752,-0.3783,-0.3797,-0.3811,-0.3833,-0.3849,-0.3868,-0.3884,-0.3913,-0.3925,-0.3952,-0.3973,-0.4014,-0.4034,-0.406,-0.4064,-0.4073,-0.4068,-0.4062,-0.4064,-0.4062,-0.4064,-0.4074,-0.4074,-0.4074,-0.4074,0,-0.3753,-0.3762,-0.3783,-0.3808,-0.3827,-0.3847,-0.3868,-0.3879,-0.3902,-0.3919,-0.3945,-0.3962,-0.3996,-0.4021,-0.4049,-0.4065,-0.4073,-0.4075,-0.4079,-0.4074,-0.4066,-0.407,-0.4046,-0.4074,-0.4074,-0.4074,-0.4074,-0.4074,-0.3762,-0.3777,-0.3801,-0.3825,-0.3843,-0.3863,-0.3879,-0.3896,-0.3918,-0.3947,-0.3957,-0.3983,-0.4008,-0.4046,-0.4061,-0.4083,-0.4083,-0.4089,-0.409,-0.4091,-0.409,-0.4063,-0.4088,-0.4088,-0.4088,-0.4088,-0.4088,0,-0.378,-0.3796,-0.3818,-0.3846,-0.3865,-0.3872,-0.3895,-0.3911,-0.3934,-0.3956,-0.3977,-0.4007,-0.4032,-0.4055,-0.4081,-0.4094,-0.4098,-0.41,-0.4099,-0.4102,-0.4089,-0.4082,-0.4096,-0.4096,-0.4096,-0.4096,-0.4096,-0.4096,-0.3791,-0.3817,-0.3828,-0.3863,-0.3879,-0.3905,-0.3918,-0.3936,-0.3953,-0.3986,-0.4006,-0.4021,-0.4044,-0.4072,-0.4095,-0.4101,-0.411,-0.4111,-0.4118,-0.4104,-0.4103,-0.4102,-0.4096,-0.4113,-0.4113,-0.413,-0.413,-0.413]}]]